Date,TemperatureHighF,TemperatureAvgF,TemperatureLowF,DewpointHighF,DewpointAvgF,DewpointLowF,HumidityHigh,HumidityAvg,HumidityLow,PressureMaxIn,PressureMinIn,WindSpeedMaxMPH,WindSpeedAvgMPH,GustSpeedMaxMPH,PrecipitationSumIn
2013-1-1,39.0,32.0,15.7,32.2,23.9,10.7,80,63,45,30.39,29.38,0,-999,0,0.00
2013-1-2,31.7,19.9,11.0,25.0,14.0,4.8,83,69,57,30.00,29.67,0,-999,0,0.00
2013-1-3,27.4,14.7,1.7,14.5,7.4,-1.6,82,64,30,30.04,29.80,0,-999,0,0.00
2013-1-4,40.9,30.4,15.6,31.2,24.9,12.4,88,74,55,29.80,29.52,0,-999,0,0.00
2013-1-5,43.9,34.6,22.9,30.8,26.6,19.2,82,65,40,30.21,29.58,0,-999,0,0.00
2013-1-6,43.7,33.8,23.6,35.2,29.9,20.5,93,81,62,30.16,29.73,0,-999,0,0.00
2013-1-7,40.3,31.4,22.7,32.4,26.3,19.5,97,76,45,30.43,25.46,0,-999,0,0.00
2013-1-8,46.6,33.0,20.5,36.3,28.4,18.5,94,78,54,30.37,30.21,0,-999,0,0.00
2013-1-9,45.2,36.3,23.3,39.3,31.9,22.0,94,80,59,30.43,29.80,0,-999,0,0.00
2013-1-10,47.4,41.4,32.8,35.6,32.2,28.6,80,61,45,30.63,29.86,0,-999,0,0.00
2013-1-11,42.7,35.2,27.2,37.1,31.6,25.1,97,82,61,30.62,30.15,0,-999,0,0.00
2013-1-12,44.5,40.1,37.5,43.6,39.5,36.8,99,97,94,30.15,30.01,0,-999,0,0.00
2013-1-13,49.6,45.1,38.9,49.3,44.9,38.4,100,99,95,30.05,29.80,0,-999,0,0.00
2013-1-14,60.1,48.6,40.4,54.5,44.9,33.9,100,85,52,30.21,29.60,0,-999,0,0.00
2013-1-15,45.2,38.4,32.3,36.0,31.9,29.0,89,71,49,30.32,30.17,0,-999,0,0.00
2013-1-16,37.3,35.1,32.9,36.6,33.7,30.1,99,93,80,30.20,29.55,0,-999,0,0.00
2013-1-17,44.0,35.4,28.6,40.2,31.5,18.9,99,82,52,29.98,25.46,0,-999,0,0.00
2013-1-18,31.7,23.2,17.5,21.5,12.1,7.6,74,51,35,30.47,29.91,0,-999,0,0.00
2013-1-19,48.4,37.7,23.8,36.6,28.3,14.8,80,60,43,30.36,29.61,0,-999,0,0.00
2013-1-20,55.7,41.8,29.4,38.2,31.6,19.3,76,58,34,29.71,29.13,0,-999,0,0.00
2013-1-21,32.7,27.3,19.7,24.7,18.4,11.9,92,60,41,29.95,29.51,0,-999,0,0.00
2013-1-22,29.1,21.9,12.4,24.5,15.4,7.1,93,69,42,29.93,29.46,0,-999,0,0.00
2013-1-23,18.8,13.6,4.3,7.6,3.0,-0.6,72,51,35,30.03,29.90,0,-999,0,0.00
2013-1-24,22.0,12.0,0.0,6.1,1.3,-4.0,78,51,31,30.17,29.91,0,-999,0,0.00
2013-1-25,27.7,18.6,7.2,14.2,6.2,-0.1,65,46,27,30.28,29.91,0,-999,0,0.00
2013-1-26,27.7,19.4,11.4,15.8,9.9,5.1,89,58,32,30.40,29.83,0,-999,0,0.00
2013-1-27,32.2,22.1,12.1,14.6,10.6,7.0,73,51,30,30.53,30.15,0,-999,0,0.00
2013-1-28,34.1,26.9,17.9,28.2,20.4,10.0,94,70,37,30.49,29.86,0,-999,0,0.00
2013-1-29,37.5,32.9,25.9,35.9,31.1,24.5,97,90,79,30.11,29.86,0,-999,0,0.00
2013-1-30,59.8,46.1,36.5,58.6,45.5,35.7,100,97,91,30.05,28.97,0,-999,0,0.00
2013-1-31,62.3,48.3,31.7,61.4,42.2,22.8,100,74,42,29.20,28.25,0,-999,0,0.00
2013-2-1,37.2,30.3,24.1,26.0,19.1,12.3,74,52,35,29.93,29.20,0,-999,0,0.00
2013-2-2,33.4,26.8,16.7,19.8,15.4,11.0,72,51,37,30.18,29.88,0,-999,0,0.00
2013-2-3,30.9,27.7,20.4,27.0,24.4,18.8,93,82,57,29.90,29.41,0,-999,0,0.00
2013-2-4,33.4,26.3,20.5,24.8,17.9,13.0,92,63,39,29.72,29.39,0,-999,0,0.00
2013-2-5,34.4,28.3,22.1,25.6,19.0,13.2,85,58,43,29.85,25.46,0,-999,0,0.00
2013-2-6,41.8,32.0,24.0,32.8,24.1,14.7,92,66,40,30.27,29.69,0,-999,0,0.00
2013-2-7,32.6,26.2,16.4,15.4,12.2,8.2,70,44,29,30.61,30.27,0,-999,0,0.00
2013-2-8,29.0,25.0,20.4,24.4,21.1,12.6,97,81,37,30.55,25.46,0,-999,0,0.00
2013-2-9,25.2,21.4,16.6,23.1,18.5,9.5,98,84,63,30.14,29.27,0,-999,0,0.00
2013-2-10,40.9,23.5,6.1,25.5,13.5,2.4,78,57,27,30.41,30.14,0,-999,0,0.00
2013-2-11,36.4,30.0,18.3,35.8,27.2,12.3,98,85,65,30.34,29.25,0,-999,0,0.00
2013-2-12,47.9,39.5,33.6,37.8,34.9,32.2,99,79,56,29.64,29.23,0,-999,0,0.00
2013-2-13,47.4,36.9,27.6,35.7,30.5,25.7,90,72,47,29.62,29.40,0,-999,0,0.00
2013-2-14,46.8,36.6,26.4,34.1,29.1,23.5,86,68,41,29.80,29.39,0,-999,0,0.00
2013-2-15,55.7,40.3,28.7,41.3,33.8,25.9,95,73,44,29.80,29.66,0,-999,0,0.00
2013-2-16,42.4,37.3,31.3,37.3,32.1,22.8,96,76,53,29.77,29.43,0,-999,0,0.00
2013-2-17,31.7,24.3,18.8,25.0,16.0,8.8,92,61,45,29.44,28.94,0,-999,0,0.00
2013-2-18,34.4,24.9,16.5,15.5,11.4,7.9,58,44,27,30.05,29.36,0,-999,0,0.00
2013-2-19,48.9,36.8,21.3,42.8,28.9,12.3,99,66,37,30.07,25.46,0,-999,0,0.00
2013-2-20,40.7,34.7,28.5,40.3,27.2,19.6,100,67,42,29.49,29.13,0,-999,0,0.00
2013-2-21,36.8,29.7,25.8,22.5,20.6,16.8,75,59,43,30.14,29.46,0,-999,0,0.00
2013-2-22,44.2,33.9,22.1,30.5,25.9,20.1,91,66,40,30.42,30.14,0,-999,0,0.00
2013-2-23,42.1,37.1,30.6,36.3,33.1,27.6,97,81,66,30.32,29.71,0,-999,0,0.00
2013-2-24,38.0,36.8,35.0,37.2,36.2,34.5,100,97,94,29.72,29.41,0,-999,0,0.00
2013-2-25,42.1,37.2,32.2,38.7,35.9,31.6,99,94,77,30.19,29.68,0,-999,0,0.00
2013-2-26,47.9,38.3,31.2,41.0,34.4,30.7,100,83,57,30.33,25.46,0,-999,0,0.00
2013-2-27,43.6,39.7,36.8,42.8,38.7,33.4,100,95,79,30.09,29.21,0,-999,0,0.00
2013-2-28,49.9,40.9,36.6,43.6,38.8,36.0,100,90,66,29.29,29.13,0,-999,0,0.00
2013-3-1,44.2,40.4,33.8,38.0,35.5,32.6,99,78,64,29.36,29.13,0,-999,0,0.00
2013-3-2,38.2,36.8,36.6,33.9,33.5,32.5,84,83,76,29.35,29.33,0,-999,0,0.00
2013-3-3,44.4,40.4,36.2,37.4,34.8,30.8,81,74,67,29.25,29.18,0,-999,0,0.00
2013-3-4,43.0,36.8,31.8,32.9,30.0,26.3,80,69,52,29.47,29.21,0,-999,0,0.00
2013-3-5,48.9,39.4,32.7,37.1,32.4,27.7,91,70,48,29.95,29.46,0,-999,0,0.00
2013-3-6,40.7,38.1,35.4,38.8,36.6,33.5,99,93,77,30.03,29.90,0,-999,0,0.00
2013-3-7,38.2,35.3,33.6,36.3,34.0,31.5,98,93,82,29.99,25.46,0,-999,0,0.00
2013-3-8,43.8,35.9,33.0,37.9,34.2,30.4,99,92,64,30.08,29.77,0,-999,0,0.00
2013-3-9,54.7,38.3,27.4,40.2,30.5,25.6,94,70,26,30.37,30.07,0,-999,0,0.00
2013-3-10,49.1,37.5,25.1,39.3,32.6,24.0,96,79,53,30.45,30.27,0,-999,0,0.00
2013-3-11,56.4,44.0,34.6,42.9,38.6,33.5,97,78,49,30.30,30.03,0,-999,0,0.00
2013-3-12,57.4,49.5,40.6,55.1,48.4,39.3,100,95,81,30.05,29.39,0,-999,0,0.00
2013-3-13,55.1,44.8,33.8,51.6,36.9,27.8,100,70,33,29.51,29.39,0,-999,0,0.00
2013-3-14,41.2,33.9,25.0,30.2,23.7,14.9,77,56,39,29.58,29.39,0,-999,0,0.00
2013-3-15,44.5,32.7,20.5,33.6,21.4,12.0,88,54,25,29.63,29.27,0,-999,0,0.00
2013-3-16,42.6,36.0,29.5,31.3,23.8,19.4,78,52,30,29.66,29.33,0,-999,0,0.00
2013-3-17,42.2,32.1,22.2,23.2,19.4,13.0,84,50,27,30.31,29.65,0,-999,0,0.00
2013-3-18,43.1,31.4,16.9,31.0,17.3,10.1,90,47,21,30.51,30.18,0,-999,0,0.00
2013-3-19,37.4,34.0,26.9,36.8,33.2,25.6,99,96,89,30.18,29.31,0,-999,0,0.00
2013-3-20,38.3,30.4,24.4,30.5,26.1,21.9,96,80,56,29.54,25.46,0,-999,0,0.00
2013-3-21,40.2,29.7,18.9,28.8,23.4,17.5,94,72,38,29.54,29.23,0,-999,0,0.00
2013-3-22,42.5,32.8,23.9,29.3,24.9,21.9,93,65,41,29.43,29.24,0,-999,0,0.00
2013-3-23,43.7,33.8,22.7,29.1,24.6,19.8,85,61,39,29.51,29.27,0,-999,0,0.00
2013-3-24,48.1,37.7,29.9,31.9,27.6,24.4,79,58,38,29.55,29.43,0,-999,0,0.00
2013-3-25,44.1,36.0,28.6,34.3,29.9,25.1,83,71,59,29.50,29.13,0,-999,0,0.00
2013-3-26,51.7,40.2,32.8,33.3,29.7,26.0,80,59,30,29.51,29.16,0,-999,0,0.00
2013-3-27,56.2,41.4,27.0,35.2,29.3,23.0,81,55,28,29.65,25.46,0,-999,0,0.00
2013-3-28,50.6,42.1,33.8,38.2,35.2,32.7,96,71,42,29.85,29.65,0,-999,0,0.00
2013-3-29,58.9,43.5,31.6,39.5,34.6,29.7,93,66,33,29.91,29.77,0,-999,0,0.00
2013-3-30,58.2,45.5,31.9,35.5,29.6,21.2,90,50,21,29.98,29.83,0,-999,0,0.00
2013-3-31,62.6,43.9,25.6,42.2,30.3,20.9,90,54,22,30.01,29.44,0,-999,0,0.00
2013-4-1,61.7,45.9,33.7,47.7,38.2,18.0,98,70,33,29.51,29.08,0,-999,0,0.00
2013-4-2,42.5,34.0,28.4,24.1,19.6,16.6,57,43,30,29.71,29.51,0,-999,0,0.00
2013-4-3,48.4,37.0,28.2,24.5,20.4,17.9,58,40,20,30.05,29.69,0,-999,0,0.00
2013-4-4,56.7,42.3,25.4,28.5,23.9,18.7,68,39,19,30.26,29.86,0,-999,0,0.00
2013-4-5,63.2,46.6,36.5,35.7,31.1,27.4,72,47,18,29.87,25.46,0,-999,0,0.00
2013-4-6,47.8,37.4,28.1,29.3,19.1,12.6,66,37,19,30.32,29.65,0,-999,0,0.00
2013-4-7,53.0,40.8,24.4,40.5,27.5,14.1,79,51,30,30.32,29.79,0,-999,0,0.00
2013-4-8,65.9,51.7,38.8,45.6,40.8,37.6,97,63,29,29.97,29.74,0,-999,0,0.00
2013-4-9,71.9,56.1,44.9,54.4,45.9,40.2,93,64,36,29.94,29.63,0,-999,0,0.00
2013-4-10,62.1,52.1,45.8,52.1,47.8,43.4,96,82,59,29.87,25.46,0,-999,0,0.00
2013-4-11,54.2,46.8,39.6,48.4,40.5,30.1,98,75,39,30.05,29.59,0,-999,0,0.00
2013-4-12,40.7,37.1,35.0,37.8,35.0,31.6,98,90,74,30.09,29.55,0,-999,0,0.00
2013-4-13,53.1,43.5,35.2,43.3,38.7,34.4,99,80,51,29.73,29.48,0,-999,0,0.00
2013-4-14,55.4,45.1,33.3,41.3,36.0,28.6,91,65,37,30.16,29.70,0,-999,0,0.00
2013-4-15,60.6,44.6,29.0,40.0,34.9,27.4,93,64,33,30.40,30.15,0,-999,0,0.00
2013-4-16,70.3,52.4,36.0,52.3,43.9,34.0,93,68,37,30.41,29.89,0,-999,0,0.00
2013-4-17,68.3,57.6,43.6,53.9,41.3,32.3,83,48,24,30.33,29.90,0,-999,0,0.00
2013-4-18,65.2,50.7,33.5,45.3,36.7,30.6,89,52,29,30.48,30.04,0,-999,0,0.00
2013-4-19,76.4,63.4,52.2,63.0,57.4,45.3,97,77,52,30.05,29.27,0,-999,0,0.00
2013-4-20,67.1,53.3,41.7,63.3,44.0,28.0,96,66,36,30.16,29.24,0,-999,0,0.00
2013-4-21,54.8,42.3,29.2,33.3,27.6,23.7,78,48,25,30.85,30.15,0,-999,0,0.00
2013-4-22,53.8,41.4,29.2,35.6,31.9,27.7,94,64,28,30.95,30.72,0,-999,0,0.00
2013-4-23,41.2,38.7,33.0,40.6,36.9,29.9,99,91,76,30.73,30.02,0,-999,0,0.00
2013-4-24,77.8,57.9,40.5,57.6,47.0,39.9,100,66,24,30.02,29.49,0,-999,0,0.00
2013-4-25,66.8,55.1,40.5,52.9,40.6,30.0,95,52,24,30.24,29.55,0,-999,0,0.00
2013-4-26,63.3,48.9,32.5,40.2,35.8,29.0,90,54,29,30.47,25.46,0,-999,0,0.00
2013-4-27,67.8,51.7,34.6,45.7,39.3,33.3,95,58,28,30.46,30.23,0,-999,0,0.00
2013-4-28,73.3,55.0,36.9,48.0,40.3,34.9,94,53,24,30.33,30.13,0,-999,0,0.00
2013-4-29,72.3,58.1,43.2,52.5,41.5,34.0,79,46,27,30.23,30.08,0,-999,0,0.00
2013-4-30,73.7,58.7,45.2,43.9,35.7,30.8,64,34,18,30.37,30.19,0,-999,0,0.00
2013-5-1,74.0,55.1,34.8,46.2,38.4,33.2,94,49,22,30.53,30.36,0,-999,0,0.00
2013-5-2,79.0,64.1,41.0,52.3,44.9,36.2,90,46,22,30.49,30.36,0,-999,0,0.00
2013-5-3,75.9,75.9,75.9,47.6,47.6,47.6,27,27,27,30.36,30.36,0,-999,0,0.00
2013-5-4,75.9,75.9,75.9,47.6,47.6,47.6,27,27,27,30.36,30.36,0,-999,0,0.00
2013-5-5,75.9,71.1,40.0,47.6,46.3,37.5,89,34,27,30.36,30.21,0,-999,0,0.00
2013-5-6,75.0,54.3,34.3,51.9,44.0,33.2,99,67,25,30.25,30.02,0,-999,0,0.00
2013-5-7,81.5,64.4,44.5,59.9,52.8,43.2,95,64,29,30.09,29.94,0,-999,0,0.00
2013-5-8,75.2,63.2,51.8,64.1,58.1,50.3,95,80,54,30.13,29.90,0,-999,0,0.00
2013-5-9,67.6,60.2,54.6,63.5,58.5,53.7,98,93,73,29.91,29.66,0,-999,0,0.00
2013-5-10,81.1,65.9,52.8,64.3,58.1,52.2,99,74,37,29.77,29.66,0,-999,0,0.00
2013-5-11,69.5,63.5,58.6,63.3,60.1,55.7,97,86,74,29.69,25.46,0,-999,0,0.00
2013-5-12,72.0,60.3,45.5,60.8,53.5,36.8,98,75,42,29.54,29.17,0,-999,0,0.00
2013-5-13,61.2,48.7,38.3,43.7,36.6,33.0,84,56,31,29.87,25.46,0,-999,0,0.00
2013-5-14,62.4,48.2,35.3,43.7,36.7,32.5,89,59,31,29.91,29.79,0,-999,0,0.00
2013-5-15,71.3,52.4,35.8,53.0,43.4,33.3,92,68,27,29.90,29.33,0,-999,0,0.00
2013-5-16,82.6,65.8,48.6,54.8,48.1,41.5,96,52,21,29.57,29.28,0,-999,0,0.00
2013-5-17,70.0,59.0,46.8,50.3,45.2,40.8,77,53,30,30.16,29.56,0,-999,0,0.00
2013-5-18,76.8,58.2,40.2,53.8,45.7,38.4,94,61,25,30.29,30.15,0,-999,0,0.00
2013-5-19,74.2,57.8,46.4,58.4,52.2,44.6,97,79,43,30.35,30.15,0,-999,0,0.00
2013-5-20,81.9,67.5,56.0,69.3,62.1,55.1,98,80,53,30.15,25.46,0,-999,0,0.00
2013-5-21,79.6,62.0,50.5,69.6,58.5,49.1,97,86,62,29.88,25.46,0,-999,0,0.00
2013-5-22,67.0,56.7,50.4,63.0,55.0,49.5,99,93,80,29.97,29.65,0,-999,0,0.00
2013-5-23,77.2,63.0,53.9,72.9,61.7,53.3,100,94,76,29.73,29.52,0,-999,0,0.00
2013-5-24,71.9,62.5,48.4,68.6,60.7,47.6,99,92,74,29.59,29.30,0,-999,0,0.00
2013-5-25,50.9,46.8,40.7,50.5,46.4,39.5,99,98,94,29.59,29.42,0,-999,0,0.00
2013-5-26,58.8,48.2,39.9,47.4,42.6,38.4,97,77,49,29.98,29.41,0,-999,0,0.00
2013-5-27,72.0,56.4,40.4,51.9,44.5,39.1,97,62,27,30.11,29.94,0,-999,0,0.00
2013-5-28,75.9,59.2,41.5,55.7,48.4,40.1,95,65,28,30.19,30.06,0,-999,0,0.00
2013-5-29,69.2,62.3,56.0,65.8,60.2,52.0,98,91,81,30.11,29.79,0,-999,0,0.00
2013-5-30,87.5,73.6,61.5,73.4,67.1,60.8,99,78,48,29.96,29.84,0,-999,0,0.00
2013-5-31,94.4,78.6,62.8,76.3,68.4,61.7,98,69,36,29.98,29.73,0,-999,0,0.00
2013-6-1,93.6,80.4,66.8,74.2,68.4,63.7,89,64,33,29.79,29.60,0,-999,0,0.00
2013-6-2,91.3,78.3,68.2,75.7,69.3,65.9,96,71,37,29.65,29.39,0,-999,0,0.00
2013-6-3,77.8,68.0,57.0,70.9,64.4,50.2,97,86,62,29.61,29.47,0,-999,0,0.00
2013-6-4,71.8,60.8,47.2,55.4,49.6,43.3,87,61,39,29.99,29.59,0,-999,0,0.00
2013-6-5,75.9,61.8,47.0,59.1,51.9,45.4,94,66,32,30.13,29.96,0,-999,0,0.00
2013-6-6,75.2,63.3,51.5,60.3,54.8,49.4,94,69,43,30.13,29.98,0,-999,0,0.00
2013-6-7,57.4,55.0,52.1,56.8,54.2,51.6,99,96,90,30.01,29.59,0,-999,0,0.00
2013-6-8,77.4,62.6,52.4,68.3,59.3,51.9,100,87,63,29.84,29.30,0,-999,0,0.00
2013-6-9,81.2,67.2,54.5,65.2,59.1,53.4,98,73,42,30.08,29.83,0,-999,0,0.00
2013-6-10,70.3,61.7,54.2,62.1,58.1,52.9,97,85,62,30.14,29.85,0,-999,0,0.00
2013-6-11,61.6,57.8,55.0,59.3,56.9,54.5,99,96,87,29.85,29.21,0,-999,0,0.00
2013-6-12,70.6,62.0,55.9,60.8,57.2,52.9,99,81,58,29.57,29.18,0,-999,0,0.00
2013-6-13,66.7,56.8,50.0,61.6,54.9,49.0,97,91,73,29.57,25.46,0,-999,0,0.00
2013-6-14,75.6,60.6,51.6,63.1,56.4,50.8,99,84,45,29.51,25.46,0,-999,0,0.00
2013-6-15,79.8,65.7,50.7,60.5,54.4,49.7,97,65,30,29.74,29.51,0,-999,0,0.00
2013-6-16,77.8,65.2,53.0,65.2,58.2,49.9,89,73,45,29.74,29.39,0,-999,0,0.00
2013-6-17,85.7,68.3,57.5,69.5,62.6,55.9,97,80,44,29.69,25.46,0,-999,0,0.00
2013-6-18,72.6,62.1,56.8,66.9,60.3,56.1,99,92,70,29.77,29.66,0,-999,0,0.00
2013-6-19,77.2,64.0,52.6,62.6,56.5,50.1,98,74,38,30.06,29.71,0,-999,0,0.00
2013-6-20,79.4,64.8,47.6,62.3,55.0,46.4,96,68,37,30.23,25.46,0,-999,0,0.00
2013-6-21,86.3,71.5,56.9,69.9,61.0,54.2,91,67,33,30.20,30.11,0,-999,0,0.00
2013-6-22,84.4,72.9,61.8,71.4,64.6,59.5,92,71,48,30.16,29.99,0,-999,0,0.00
2013-6-23,90.3,76.7,63.2,77.6,68.9,61.1,93,73,54,30.06,29.80,0,-999,0,0.00
2013-6-24,94.1,79.9,68.9,78.1,71.6,66.7,95,73,42,29.86,29.64,0,-999,0,0.00
2013-6-25,91.0,77.9,67.1,77.0,70.9,65.5,97,77,48,29.75,29.42,0,-999,0,0.00
2013-6-26,84.5,73.1,67.2,75.5,70.5,66.2,98,90,63,29.62,29.42,0,-999,0,0.00
2013-6-27,71.3,66.0,61.8,68.2,64.7,61.1,98,95,86,29.65,29.47,0,-999,0,0.00
2013-6-28,77.5,66.9,58.0,74.7,66.0,57.3,100,96,84,29.49,29.06,0,-999,0,0.00
2013-6-29,82.8,74.7,69.3,74.2,70.3,67.4,98,84,63,29.41,29.10,0,-999,0,0.00
2013-6-30,86.9,76.1,66.9,76.7,70.9,66.0,98,82,59,29.74,29.41,0,-999,0,0.00
2013-7-1,81.0,73.7,71.1,75.7,71.7,69.3,98,92,75,29.95,29.73,0,-999,0,0.00
2013-7-2,82.6,71.4,61.1,78.0,69.6,60.4,99,93,73,30.16,29.94,0,-999,0,0.00
2013-7-3,88.0,73.7,61.0,78.4,70.0,60.3,99,87,61,30.16,30.03,0,-999,0,0.00
2013-7-4,92.6,81.7,71.2,81.3,74.8,70.3,98,77,53,30.14,29.96,0,-999,0,0.00
2013-7-5,93.6,83.2,73.8,81.4,75.5,71.9,93,75,50,30.07,29.88,0,-999,0,0.00
2013-7-6,90.5,80.4,70.5,78.1,72.9,65.1,95,75,51,29.96,29.81,0,-999,0,0.00
2013-7-7,91.3,77.3,66.0,79.1,71.5,63.4,92,79,54,29.88,29.69,0,-999,0,0.00
2013-7-8,87.2,75.6,66.1,77.5,71.9,64.9,97,87,59,29.95,29.70,0,-999,0,0.00
2013-7-9,72.9,68.4,65.0,69.8,66.7,64.0,98,93,83,30.01,29.91,0,-999,0,0.00
2013-7-10,83.6,72.7,66.0,77.7,70.6,64.6,98,92,74,29.95,29.52,0,-999,0,0.00
2013-7-11,82.8,74.7,69.3,78.1,72.7,67.5,99,92,73,29.75,29.49,0,-999,0,0.00
2013-7-12,78.3,70.4,63.9,67.8,63.5,59.5,94,75,48,30.15,29.75,0,-999,0,0.00
2013-7-13,78.5,70.6,63.9,73.0,66.7,60.3,95,85,73,30.31,30.14,0,-999,0,0.00
2013-7-14,91.3,78.5,68.9,77.8,73.3,67.7,98,82,51,30.29,30.14,0,-999,0,0.00
2013-7-15,93.7,79.2,68.9,79.2,73.5,68.0,97,81,49,30.15,29.98,0,-999,0,0.00
2013-7-16,93.5,79.6,66.9,78.1,71.4,65.3,95,74,40,30.09,30.00,0,-999,0,0.00
2013-7-17,94.0,80.9,68.5,78.3,73.1,67.1,97,75,45,30.11,29.81,0,-999,0,0.00
2013-7-18,94.4,81.7,72.5,79.4,74.1,69.7,92,74,46,29.86,29.73,0,-999,0,0.00
2013-7-19,96.2,83.7,71.8,79.8,75.3,69.5,95,73,46,29.75,29.40,0,-999,0,0.00
2013-7-20,92.6,81.1,69.8,80.4,73.4,65.0,87,74,52,29.56,29.32,0,-999,0,0.00
2013-7-21,84.2,72.4,62.9,72.6,66.5,61.0,94,79,51,29.83,29.56,0,-999,0,0.00
2013-7-22,82.3,71.7,64.3,73.4,67.9,63.3,98,86,62,29.87,29.67,0,-999,0,0.00
2013-7-23,78.5,71.0,67.9,75.9,70.0,66.4,100,96,86,29.67,29.15,0,-999,0,0.00
2013-7-24,85.8,74.6,64.4,76.2,69.2,56.7,100,81,52,29.77,29.21,0,-999,0,0.00
2013-7-25,64.4,62.8,59.2,60.0,57.5,56.0,97,79,70,30.01,29.77,0,-999,0,0.00
2013-7-26,73.2,64.9,59.9,70.4,63.7,59.1,99,95,83,29.96,29.75,0,-999,0,0.00
2013-7-27,84.2,70.8,57.7,72.4,65.5,56.8,99,81,48,29.92,29.81,0,-999,0,0.00
2013-7-28,82.8,70.8,63.4,74.2,67.2,61.8,97,86,61,29.87,29.77,0,-999,0,0.00
2013-7-29,85.1,72.6,66.5,74.3,69.6,65.6,98,89,60,29.91,29.76,0,-999,0,0.00
2013-7-30,83.0,70.2,58.6,67.7,62.8,57.6,98,75,42,29.99,29.88,0,-999,0,0.00
2013-7-31,82.8,69.6,58.4,69.0,62.7,57.1,97,76,44,30.05,29.89,0,-999,0,0.00
2013-8-1,82.8,68.6,59.7,70.4,64.5,58.6,97,85,53,29.91,29.65,0,-999,0,0.00
2013-8-2,82.6,70.7,63.3,72.4,65.6,61.6,99,82,49,29.65,29.52,0,-999,0,0.00
2013-8-3,79.5,68.5,60.8,68.3,63.4,58.0,97,81,53,29.63,29.49,0,-999,0,0.00
2013-8-4,80.2,66.3,55.4,65.7,59.4,53.9,95,75,45,29.69,29.49,0,-999,0,0.00
2013-8-5,76.8,63.2,51.6,58.2,53.1,49.0,96,67,33,29.92,29.67,0,-999,0,0.00
2013-8-6,80.0,63.4,48.0,63.2,55.0,47.0,96,71,40,30.06,25.46,0,-999,0,0.00
2013-8-7,80.6,66.3,52.8,64.6,58.3,51.5,96,73,39,30.11,29.98,0,-999,0,0.00
2013-8-8,80.5,71.6,63.6,73.6,67.5,59.3,98,84,70,30.01,29.83,0,-999,0,0.00
2013-8-9,74.3,71.9,70.6,73.9,70.8,68.4,99,96,90,29.86,29.45,0,-999,0,0.00
2013-8-10,82.6,71.4,59.5,70.4,65.4,55.9,100,79,43,29.86,29.52,0,-999,0,0.00
2013-8-11,80.0,65.6,52.2,65.0,58.3,51.0,98,75,38,29.96,29.83,0,-999,0,0.00
2013-8-12,82.1,68.5,57.7,66.4,61.4,56.2,96,76,41,29.88,29.71,0,-999,0,0.00
2013-8-13,74.2,67.6,63.6,70.4,65.5,61.8,97,91,81,29.72,29.35,0,-999,0,0.00
2013-8-14,74.3,65.4,56.9,64.1,58.0,53.3,97,73,48,29.77,29.33,0,-999,0,0.00
2013-8-15,78.3,62.8,50.7,60.5,55.3,49.5,97,73,41,30.00,29.77,0,-999,0,0.00
2013-8-16,79.3,64.6,52.5,63.8,57.4,51.0,96,75,41,30.12,29.99,0,-999,0,0.00
2013-8-17,82.0,65.9,52.4,67.1,59.7,51.1,97,78,44,30.26,30.12,0,-999,0,0.00
2013-8-18,79.1,66.7,55.9,69.0,62.3,54.7,97,83,57,30.25,29.95,0,-999,0,0.00
2013-8-19,82.9,69.1,58.5,69.0,63.1,57.4,97,78,50,29.96,29.76,0,-999,0,0.00
2013-8-20,85.2,71.1,60.0,70.6,64.6,58.5,96,78,45,29.98,29.81,0,-999,0,0.00
2013-8-21,87.3,72.5,60.2,71.8,65.7,58.9,97,77,47,30.05,29.86,0,-999,0,0.00
2013-8-22,87.5,74.6,63.9,73.3,68.4,62.3,95,78,48,29.89,29.56,0,-999,0,0.00
2013-8-23,82.0,71.5,60.4,68.8,61.5,53.4,93,67,38,30.04,29.57,0,-999,0,0.00
2013-8-24,78.3,62.8,50.8,58.2,53.6,49.5,96,69,34,30.33,30.04,0,-999,0,0.00
2013-8-25,82.4,65.3,50.0,63.3,56.2,48.8,97,70,33,30.38,25.46,0,-999,0,0.00
2013-8-26,79.6,70.2,61.8,70.8,64.8,57.9,96,79,61,30.10,29.63,0,-999,0,0.00
2013-8-27,84.8,73.3,66.0,71.9,68.1,64.0,97,82,52,29.69,29.57,0,-999,0,0.00
2013-8-28,85.8,71.6,62.1,73.0,66.4,60.9,97,81,53,29.81,29.60,0,-999,0,0.00
2013-8-29,67.4,64.4,61.1,65.2,62.7,59.3,98,92,86,29.95,29.76,0,-999,0,0.00
2013-8-30,83.6,69.4,57.7,72.0,64.6,56.5,97,82,55,29.87,29.55,0,-999,0,0.00
2013-8-31,81.0,73.3,68.5,76.6,71.0,66.3,98,91,78,29.58,29.49,0,-999,0,0.00
2013-9-1,81.9,74.6,69.3,74.5,71.6,68.4,97,89,70,29.65,29.51,0,-999,0,0.00
2013-9-2,77.3,73.6,71.4,76.3,72.4,70.5,99,95,86,29.63,29.39,0,-999,0,0.00
2013-9-3,80.3,71.1,61.5,73.1,68.0,58.5,99,88,64,29.55,29.37,0,-999,0,0.00
2013-9-4,79.8,66.7,57.2,64.3,59.4,55.9,97,75,44,29.71,29.53,0,-999,0,0.00
2013-9-5,78.7,61.4,49.2,65.7,57.6,46.8,97,85,48,30.06,29.61,0,-999,0,0.00
2013-9-6,69.5,54.9,41.9,51.9,46.5,40.8,97,71,35,30.19,29.95,0,-999,0,0.00
2013-9-7,78.5,62.7,48.9,62.4,54.7,46.5,92,72,39,29.96,29.59,0,-999,0,0.00
2013-9-8,72.8,62.2,46.0,63.6,54.7,42.4,95,73,40,29.98,29.45,0,-999,0,0.00
2013-9-9,70.0,55.1,40.2,52.8,46.9,38.6,95,71,38,30.18,29.97,0,-999,0,0.00
2013-9-10,73.8,65.0,54.3,72.1,62.8,50.9,98,90,82,30.05,29.84,0,-999,0,0.00
2013-9-11,93.4,78.1,67.6,79.2,72.5,66.8,100,81,50,29.92,29.72,0,-999,0,0.00
2013-9-12,85.5,74.0,66.8,77.7,70.1,65.5,97,85,62,29.76,29.32,0,-999,0,0.00
2013-9-13,76.4,67.2,58.7,71.2,64.7,55.9,99,90,73,29.48,29.19,0,-999,0,0.00
2013-9-14,65.8,59.0,50.2,58.0,54.5,48.7,94,82,64,29.91,29.47,0,-999,0,0.00
2013-9-15,70.8,55.6,46.0,55.8,50.6,44.9,98,81,41,30.06,29.88,0,-999,0,0.00
2013-9-16,66.1,56.8,46.7,60.2,52.3,40.8,97,81,65,30.21,29.81,0,-999,0,0.00
2013-9-17,63.3,49.1,37.3,48.8,42.5,35.7,95,74,43,30.47,30.21,0,-999,0,0.00
2013-9-18,72.5,54.7,40.1,54.8,47.4,39.0,98,75,35,30.31,30.02,0,-999,0,0.00
2013-9-19,77.2,60.0,46.4,62.2,53.5,45.1,96,77,40,30.02,29.86,0,-999,0,0.00
2013-9-20,76.9,60.8,47.6,62.5,55.4,46.5,97,80,45,29.96,29.81,0,-999,0,0.00
2013-9-21,73.3,62.8,51.6,65.6,59.1,50.4,99,85,63,29.85,29.39,0,-999,0,0.00
2013-9-22,69.4,62.6,51.6,66.6,58.5,48.0,97,84,55,29.58,29.21,0,-999,0,0.00
2013-9-23,61.4,51.4,44.4,49.3,45.0,41.5,90,74,52,29.83,29.58,0,-999,0,0.00
2013-9-24,65.7,51.7,40.6,50.6,44.9,39.1,96,74,45,29.81,29.54,0,-999,0,0.00
2013-9-25,66.2,53.6,43.3,57.6,49.0,42.0,97,81,57,29.80,29.63,0,-999,0,0.00
2013-9-26,66.5,56.7,52.5,54.6,51.5,48.6,92,79,53,30.02,29.79,0,-999,0,0.00
2013-9-27,66.2,57.7,50.5,57.7,53.8,49.0,95,83,66,30.21,30.01,0,-999,0,0.00
2013-9-28,71.8,56.1,45.3,61.1,52.0,44.3,98,84,55,30.32,30.20,0,-999,0,0.00
2013-9-29,65.3,53.2,45.1,56.3,49.0,43.9,99,84,45,30.21,30.00,0,-999,0,0.00
2013-9-30,66.5,53.0,43.6,56.5,49.6,42.4,100,86,57,30.01,29.76,0,-999,0,0.00
2013-10-1,73.3,57.4,43.7,59.8,52.2,42.6,98,81,47,29.77,29.58,0,-999,0,0.00
2013-10-2,77.0,63.6,52.4,64.0,58.5,51.4,98,81,55,29.74,29.56,0,-999,0,0.00
2013-10-3,73.3,60.9,50.8,60.4,54.5,49.4,96,77,38,29.95,29.74,0,-999,0,0.00
2013-10-4,60.7,55.7,49.7,59.6,54.3,48.1,98,94,86,29.97,29.86,0,-999,0,0.00
2013-10-5,67.0,60.5,55.1,61.8,58.6,54.6,99,92,73,30.01,29.89,0,-999,0,0.00
2013-10-6,59.7,55.2,52.5,58.4,54.7,51.7,99,97,94,30.17,29.99,0,-999,0,0.00
2013-10-7,73.6,62.6,55.4,70.7,61.5,54.8,100,95,80,30.02,29.50,0,-999,0,0.00
2013-10-8,62.1,52.7,40.6,57.4,46.8,39.4,100,82,47,30.39,29.67,4,-463,8,0.00
2013-10-9,59.4,46.4,36.6,47.5,42.0,36.3,99,86,55,30.50,30.39,1,0,5,0.00
2013-10-10,59.2,47.9,38.0,53.3,45.6,37.5,99,92,72,30.39,30.20,1,0,2,0.00
2013-10-11,67.6,53.2,43.9,53.0,45.7,34.5,99,80,31,30.20,30.11,3,0,6,0.00
2013-10-12,55.8,50.9,44.5,54.6,50.1,44.2,99,97,94,30.41,30.17,2,0,5,0.02
2013-10-13,57.4,48.5,38.9,51.4,46.1,38.4,100,92,73,30.47,30.39,1,0,5,0.00
2013-10-14,61.5,46.5,32.8,49.2,41.1,32.6,100,84,50,30.42,30.25,1,0,6,0.00
2013-10-15,63.1,55.0,47.2,55.1,50.7,46.0,97,86,71,30.28,30.18,1,0,5,0.00
2013-10-16,59.7,53.4,47.7,53.1,50.7,46.8,99,91,70,30.20,29.92,1,0,2,0.00
2013-10-17,70.7,56.9,45.6,60.1,52.1,45.1,99,86,54,29.92,29.72,2,0,7,0.00
2013-10-18,63.9,57.6,45.1,59.7,50.0,39.6,99,78,49,29.91,29.60,5,0,15,0.05
2013-10-19,65.4,52.0,39.7,47.6,42.4,38.1,95,73,42,29.98,29.75,2,0,5,0.00
2013-10-20,58.4,50.4,38.1,49.4,39.9,32.5,98,70,39,30.02,29.69,4,0,12,0.00
2013-10-21,63.8,48.4,35.4,43.2,38.7,33.8,98,72,41,30.12,30.00,2,0,6,0.00
2013-10-22,63.5,51.3,42.1,52.5,44.8,36.9,97,80,58,29.99,29.71,2,0,6,0.00
2013-10-23,50.8,42.3,33.1,37.4,34.2,31.5,96,75,49,29.81,29.60,1,0,2,0.00
2013-10-24,50.1,42.2,31.5,37.9,30.7,25.0,96,66,39,29.89,29.66,4,0,8,0.00
2013-10-25,48.0,38.7,30.0,35.1,29.1,25.3,97,71,43,30.16,29.89,4,0,8,0.00
2013-10-26,53.1,41.0,28.8,35.4,29.5,24.6,97,67,34,30.16,29.88,4,0,12,0.00
2013-10-27,53.4,46.3,36.8,36.8,33.0,28.2,80,61,40,30.06,29.80,4,0,9,0.00
2013-10-28,55.8,41.6,30.8,35.2,30.6,24.8,93,68,37,30.37,30.07,4,0,8,0.00
2013-10-29,45.6,32.5,23.3,26.0,22.0,17.2,95,69,32,30.47,30.37,3,0,5,0.00
2013-10-30,51.8,36.6,26.8,39.5,31.7,22.8,97,83,60,30.39,30.21,1,0,4,0.00
2013-10-31,58.3,43.7,29.0,57.7,42.7,28.5,99,96,87,30.25,29.79,2,0,6,0.21
2013-11-1,67.5,61.7,50.3,62.9,57.1,49.3,99,86,67,29.78,29.42,5,0,11,0.07
2013-11-2,64.1,51.4,40.7,49.3,44.2,39.8,98,80,41,29.74,29.59,2,0,4,0.03
2013-11-3,45.1,38.5,26.0,44.3,26.7,14.4,98,65,33,30.44,29.74,4,0,10,0.00
2013-11-4,40.6,28.5,20.1,20.2,17.5,13.7,90,66,34,30.73,30.44,4,0,7,0.00
2013-11-5,48.7,33.9,21.1,33.1,26.2,18.3,93,75,47,30.74,30.52,2,0,4,0.00
2013-11-6,59.5,48.2,36.1,47.2,40.6,32.6,92,76,53,30.52,30.03,4,0,8,0.00
2013-11-7,63.2,52.1,35.5,56.5,47.8,30.0,96,86,72,30.03,29.68,4,0,11,0.07
2013-11-8,46.9,36.3,25.9,33.5,26.8,21.5,92,69,48,30.10,29.82,4,0,10,0.00
2013-11-9,44.2,35.7,25.5,29.8,24.4,20.7,86,65,39,30.23,30.04,6,0,9,0.00
2013-11-10,53.5,43.0,36.3,43.2,34.9,28.8,98,74,55,30.03,29.74,4,0,12,0.02
2013-11-11,51.2,43.2,34.4,31.9,27.7,22.1,74,55,32,30.11,29.85,5,0,9,0.00
2013-11-12,47.2,34.1,24.1,38.2,24.1,15.3,93,67,54,30.19,29.88,5,0,11,0.05
2013-11-13,34.9,25.5,17.4,17.8,14.5,10.3,89,64,37,30.32,30.16,3,0,8,0.00
2013-11-14,50.4,35.7,25.9,26.6,21.3,17.2,78,58,34,30.16,30.05,3,0,8,0.00
2013-11-15,60.1,40.6,26.9,27.3,20.8,14.2,79,50,17,30.20,30.10,4,0,8,0.00
2013-11-16,59.8,42.6,30.6,31.9,28.4,24.6,83,60,29,30.33,30.18,1,0,4,0.00
2013-11-17,45.5,38.4,28.1,43.6,34.9,25.0,98,87,77,30.33,29.86,1,0,2,0.02
2013-11-18,63.4,52.9,42.7,60.2,44.4,30.1,99,75,42,29.86,29.52,6,0,10,0.21
2013-11-19,46.8,37.7,28.7,30.5,21.7,15.8,66,52,40,30.29,29.67,8,1,15,0.00
2013-11-20,40.2,29.3,19.0,16.6,14.2,11.2,78,54,32,30.65,30.29,6,0,12,0.00
2013-11-21,46.6,30.0,14.6,29.4,19.6,12.2,94,68,30,30.67,30.38,2,0,5,0.00
2013-11-22,42.8,40.3,36.3,42.2,38.6,29.5,99,94,76,30.38,29.82,0,0,1,0.14
2013-11-23,44.4,36.7,27.5,43.6,26.4,8.4,99,68,39,29.93,29.79,6,1,13,0.00
2013-11-24,28.1,22.6,17.8,14.7,3.0,-4.2,66,43,27,30.20,29.80,8,2,21,0.01
2013-11-25,32.7,22.1,9.3,15.6,2.8,-9.5,67,44,20,30.38,30.20,3,0,8,0.00
2013-11-26,37.4,32.3,28.1,31.3,22.8,13.2,96,69,47,30.35,30.07,2,0,6,0.00
2013-11-27,60.9,46.4,32.2,60.4,45.6,31.4,99,97,87,30.06,29.23,5,0,11,0.76
2013-11-28,35.8,27.9,17.7,33.3,17.4,5.7,91,66,37,30.44,29.46,7,1,14,0.00
2013-11-29,31.5,21.6,11.7,17.2,10.4,0.5,91,64,35,30.76,30.44,3,0,7,0.00
2013-11-30,31.0,19.7,6.8,21.1,12.4,5.0,93,74,50,30.83,30.45,2,0,5,0.00
2013-12-1,33.8,31.1,27.7,33.3,28.7,20.8,98,91,75,30.45,30.03,1,0,1,0.01
2013-12-2,37.9,35.3,33.8,37.4,34.9,33.3,99,98,97,30.04,29.94,0,0,1,0.00
2013-12-3,47.4,35.6,27.1,38.7,33.2,26.6,99,92,62,29.97,29.87,2,0,6,0.00
2013-12-4,41.5,30.8,24.4,31.8,26.9,24.2,99,87,57,30.22,29.96,3,0,5,0.00
2013-12-5,39.2,34.0,25.7,38.9,32.9,25.0,99,96,90,30.23,29.92,1,0,2,0.01
2013-12-6,47.6,42.3,32.2,46.9,39.6,29.7,99,91,61,30.18,29.86,2,0,6,0.16
2013-12-7,37.9,30.7,20.2,32.8,27.1,19.0,98,87,61,30.46,30.09,4,0,10,0.07
2013-12-8,29.2,24.4,16.4,21.9,18.3,14.1,95,78,60,30.61,30.46,1,0,4,0.00
2013-12-9,33.9,29.1,23.7,33.1,27.3,17.8,99,93,69,30.52,29.90,4,0,5,0.00
2013-12-10,34.2,29.1,21.2,31.8,26.3,13.8,99,90,63,30.00,29.80,3,0,7,0.00
2013-12-11,30.6,22.3,14.5,19.5,16.1,12.5,95,78,53,30.21,30.00,5,0,11,0.00
2013-12-12,23.2,16.1,8.4,17.7,7.1,-1.2,94,70,36,30.29,30.07,6,0,11,0.00
2013-12-13,28.2,17.9,10.2,19.6,10.7,1.3,92,74,59,30.42,30.00,4,0,11,0.00
2013-12-14,15.3,11.2,6.8,12.7,2.8,-4.1,91,69,49,30.64,30.21,2,0,4,0.00
2013-12-15,28.6,19.9,14.7,25.6,17.9,12.6,95,92,86,30.21,29.47,0,0,1,0.00
2013-12-16,26.4,20.0,8.2,19.4,10.0,3.1,94,67,38,30.22,29.75,0,0,0,0.00
2013-12-17,14.9,7.3,-5.7,13.0,3.7,-8.6,92,85,64,30.31,30.00,0,0,0,0.00
2013-12-18,33.2,23.2,12.4,20.9,17.7,10.1,92,80,57,30.08,29.91,3,0,6,0.00
2013-12-19,40.3,30.0,23.6,26.1,22.6,19.1,88,75,49,30.12,29.97,5,0,10,0.04
2013-12-20,52.4,36.2,27.2,34.5,29.7,24.4,93,79,47,30.13,29.91,3,0,6,0.39
2013-12-21,55.9,42.7,34.0,44.6,38.0,32.0,97,84,62,29.96,29.85,1,0,5,0.08
2013-12-22,44.4,36.6,31.8,44.1,36.1,31.6,99,98,97,30.05,29.80,2,0,7,0.03
2013-12-23,35.4,32.2,31.0,35.1,32.0,30.8,99,99,98,30.11,29.98,2,0,6,0.52
2013-12-24,34.8,29.9,23.1,34.0,21.4,12.9,97,71,52,30.21,30.07,3,0,8,0.00
2013-12-25,23.2,16.4,11.3,13.6,5.4,0.3,80,62,44,30.56,30.21,6,0,11,0.00
2013-12-26,25.5,19.4,11.6,23.0,15.8,7.0,96,86,75,30.52,30.11,0,0,1,0.00
2013-12-27,32.9,23.5,15.4,21.8,18.6,14.0,96,82,59,30.29,30.20,3,0,7,0.00
2013-12-28,44.9,29.1,17.1,28.9,23.4,15.7,96,81,49,30.23,30.00,4,0,8,0.05
2013-12-29,39.9,32.7,25.3,35.6,30.4,23.8,98,91,69,30.04,29.47,2,0,6,1.15
2013-12-30,39.6,30.2,14.4,34.4,22.8,7.0,99,76,43,30.19,29.54,5,0,12,0.01
2013-12-31,23.3,15.0,7.4,12.2,5.3,-2.7,90,66,47,30.19,30.03,1,0,5,0.00
2014-1-1,25.2,16.5,7.7,11.5,7.5,3.8,87,69,45,30.40,30.19,4,0,8,0.00
2014-1-2,16.9,9.7,0.1,14.0,6.3,-3.4,90,86,80,30.38,29.91,4,0,11,0.00